CCA2838 ZSAM-ZBTJ

Flight info

Callsign CCA2838
Flight time N/A
Altitude 35100
Route DOVPU5U DOVPU W643 FOC W644 LEVGU/K0852S1100 W644 AKAVO/K0843S1130 A470 EMRID W135 ADBAS/K0848S1100 W135 DOGVI A470 DPX A593 DALIM W157 BEKDO/K0843S1130 W157 AVBOX AVBOX3H
Aircraft A320/M-SDE3FGHIRWY/LB1

Departure

Time N/A
Airport Xiamen Gaoqi International Airport (ZSAM)

Arrival

Time 2026-04-29 11:51
Airport Tianjin Binhai International Airport (ZBTJ)
Time Latitude Longitude Altitude Speed Heading
2026-04-29 10:18 30.00761 120.00401 35315 ft 523 kts 30°
2026-04-29 10:18 30.06777 120.05109 35313 ft 523 kts 30°
2026-04-29 10:19 30.12797 120.09827 35313 ft 523 kts 30°
2026-04-29 10:19 30.18778 120.14505 35325 ft 523 kts 30°
2026-04-29 10:20 30.24859 120.19204 35331 ft 520 kts 24°
2026-04-29 10:20 30.28107 120.20923 35334 ft 508 kts 11°
2026-04-29 10:20 30.31457 120.21844 35332 ft 496 kts 359°
2026-04-29 10:21 30.34893 120.21998 35330 ft 481 kts 347°
2026-04-29 10:21 30.38113 120.21437 35320 ft 468 kts 336°
2026-04-29 10:21 30.41144 120.20240 35316 ft 455 kts 326°
2026-04-29 10:21 30.43866 120.18494 35309 ft 442 kts 316°
2026-04-29 10:22 30.48775 120.14281 35295 ft 439 kts 314°
2026-04-29 10:22 30.53713 120.10077 35303 ft 441 kts 315°
2026-04-29 10:23 30.58678 120.05910 35300 ft 441 kts 315°
2026-04-29 10:23 30.63649 120.01722 35302 ft 441 kts 315°
2026-04-29 10:24 30.68643 119.97489 35320 ft 441 kts 315°
2026-04-29 10:24 30.73560 119.93305 35318 ft 441 kts 315°
2026-04-29 10:25 30.77708 119.89772 35318 ft 441 kts 314°
2026-04-29 10:25 30.83450 119.84849 35317 ft 441 kts 314°
2026-04-29 10:26 30.87582 119.81292 35327 ft 441 kts 314°
2026-04-29 10:26 30.93318 119.76358 35326 ft 441 kts 314°
2026-04-29 10:27 30.99925 119.70666 35325 ft 441 kts 314°
2026-04-29 10:28 31.04854 119.66408 35325 ft 441 kts 314°
2026-04-29 10:28 31.09783 119.62147 35325 ft 441 kts 314°
2026-04-29 10:29 31.14712 119.57879 35325 ft 441 kts 314°
2026-04-29 10:29 31.19637 119.53612 35329 ft 441 kts 314°
2026-04-29 10:30 31.24565 119.49344 35332 ft 441 kts 314°
2026-04-29 10:30 31.29489 119.45067 35334 ft 441 kts 314°
2026-04-29 10:31 31.34404 119.40796 35333 ft 440 kts 314°
2026-04-29 10:31 31.39313 119.36524 35342 ft 439 kts 314°
2026-04-29 10:32 31.44210 119.32251 35341 ft 438 kts 314°
2026-04-29 10:32 31.49095 119.27985 35340 ft 438 kts 314°
2026-04-29 10:33 31.53970 119.23714 35344 ft 437 kts 313°
2026-04-29 10:33 31.58834 119.19439 35340 ft 437 kts 313°
2026-04-29 10:34 31.63670 119.15143 35337 ft 436 kts 313°
2026-04-29 10:34 31.68346 119.10674 35331 ft 431 kts 309°
2026-04-29 10:35 31.72770 119.06020 35324 ft 429 kts 308°
2026-04-29 10:35 31.77216 119.01338 35316 ft 429 kts 309°
2026-04-29 10:36 31.81863 118.96877 35317 ft 441 kts 318°
2026-04-29 10:36 31.84640 118.95217 35318 ft 455 kts 328°
2026-04-29 10:36 31.87612 118.93890 35318 ft 457 kts 329°
2026-04-29 10:37 31.93599 118.91221 35322 ft 457 kts 329°
2026-04-29 10:37 31.99543 118.88561 35323 ft 457 kts 328°
2026-04-29 10:38 32.05487 118.85890 35330 ft 457 kts 328°
2026-04-29 10:38 32.11428 118.83204 35329 ft 457 kts 328°
2026-04-29 10:39 32.17366 118.80520 35333 ft 457 kts 328°
2026-04-29 10:39 32.23305 118.77836 35328 ft 457 kts 328°
2026-04-29 10:40 32.29236 118.75143 35328 ft 457 kts 328°
2026-04-29 10:40 32.35170 118.72458 35318 ft 456 kts 328°
2026-04-29 10:41 32.41104 118.69782 35321 ft 456 kts 328°
2026-04-29 10:41 32.47035 118.67097 35318 ft 456 kts 328°
2026-04-29 10:42 32.52964 118.64402 35318 ft 456 kts 328°
2026-04-29 10:42 32.58882 118.61697 35318 ft 456 kts 328°
2026-04-29 10:43 32.64802 118.58989 35320 ft 456 kts 328°
2026-04-29 10:43 32.70785 118.56412 35316 ft 460 kts 331°
2026-04-29 10:44 32.76952 118.54240 35317 ft 463 kts 333°
2026-04-29 10:44 32.80063 118.53209 35496 ft 466 kts 332°
2026-04-29 10:44 32.83222 118.52141 35317 ft 478 kts 332°
2026-04-29 10:45 32.89665 118.49875 35289 ft 485 kts 332°
2026-04-29 10:45 32.96139 118.47547 35288 ft 486 kts 332°
2026-04-29 10:46 33.02616 118.45217 35285 ft 487 kts 332°
2026-04-29 10:46 33.09097 118.42882 35283 ft 486 kts 332°
2026-04-29 10:47 33.15584 118.40549 35290 ft 487 kts 332°
2026-04-29 10:47 33.22063 118.38212 35295 ft 487 kts 332°
2026-04-29 10:48 33.28555 118.35872 35297 ft 487 kts 333°
2026-04-29 10:48 33.35042 118.33541 35301 ft 487 kts 333°
2026-04-29 10:49 33.41528 118.31204 35303 ft 487 kts 333°
2026-04-29 10:49 33.48009 118.28863 35304 ft 486 kts 333°
2026-04-29 10:50 33.54487 118.26509 35308 ft 486 kts 333°
2026-04-29 10:50 33.61004 118.24143 35303 ft 486 kts 333°
2026-04-29 10:51 33.67483 118.21797 35297 ft 486 kts 333°
2026-04-29 10:51 33.73920 118.19462 35298 ft 486 kts 333°
2026-04-29 10:52 33.80435 118.17076 35299 ft 486 kts 333°
2026-04-29 10:52 33.86899 118.14716 34934 ft 484 kts 333°
2026-04-29 10:52 33.90114 118.13547 34460 ft 482 kts 333°
2026-04-29 10:53 33.93331 118.12380 34264 ft 483 kts 333°
2026-04-29 10:53 33.99777 118.10039 34267 ft 485 kts 333°
2026-04-29 10:54 34.06239 118.07690 34262 ft 485 kts 334°
2026-04-29 10:54 34.12706 118.05343 34260 ft 485 kts 333°
2026-04-29 10:55 34.19129 118.03004 34261 ft 485 kts 334°
2026-04-29 10:55 34.25640 118.00636 34258 ft 485 kts 334°
2026-04-29 10:56 34.32110 117.98292 34249 ft 486 kts 334°
2026-04-29 10:56 34.38595 117.95990 34250 ft 486 kts 334°
2026-04-29 10:57 34.45086 117.93689 34247 ft 486 kts 334°
2026-04-29 10:57 34.51560 117.91367 34252 ft 485 kts 334°
2026-04-29 10:58 34.58037 117.89044 34253 ft 485 kts 334°
2026-04-29 10:58 34.64510 117.86724 34250 ft 485 kts 334°
2026-04-29 10:59 34.70974 117.84401 34247 ft 484 kts 334°
2026-04-29 10:59 34.77434 117.82069 34245 ft 484 kts 334°
2026-04-29 11:00 34.83886 117.79735 34246 ft 484 kts 334°
2026-04-29 11:00 34.90329 117.77383 34236 ft 483 kts 334°
2026-04-29 11:01 34.96763 117.75021 34239 ft 483 kts 334°
2026-04-29 11:01 35.03195 117.72662 34238 ft 482 kts 334°
2026-04-29 11:02 35.09621 117.70317 34240 ft 482 kts 334°
2026-04-29 11:02 35.16039 117.67970 34238 ft 481 kts 334°
2026-04-29 11:03 35.22436 117.65612 34235 ft 480 kts 334°
2026-04-29 11:03 35.28827 117.63256 34232 ft 479 kts 334°
2026-04-29 11:04 35.35177 117.60927 34258 ft 459 kts 332°
2026-04-29 11:04 35.37180 117.60216 34586 ft 453 kts 332°
2026-04-29 11:04 35.40186 117.59127 34396 ft 447 kts 331°
2026-04-29 11:04 35.43152 117.58029 34235 ft 444 kts 331°
2026-04-29 11:05 35.46105 117.56916 34223 ft 444 kts 330°
2026-04-29 11:05 35.52009 117.54689 34230 ft 445 kts 331°
2026-04-29 11:06 35.57938 117.52486 34223 ft 446 kts 331°
2026-04-29 11:06 35.63879 117.50289 34225 ft 446 kts 331°
2026-04-29 11:07 35.69816 117.48078 34225 ft 446 kts 331°
2026-04-29 11:07 35.75793 117.45846 34230 ft 446 kts 331°
2026-04-29 11:08 35.81692 117.43649 34224 ft 446 kts 331°
2026-04-29 11:08 35.87635 117.41441 34232 ft 446 kts 331°
2026-04-29 11:09 35.93575 117.39216 34228 ft 446 kts 330°
2026-04-29 11:09 35.99517 117.36975 34231 ft 447 kts 330°
2026-04-29 11:10 36.05519 117.34736 34228 ft 448 kts 331°
2026-04-29 11:10 36.11502 117.32536 34232 ft 449 kts 331°
2026-04-29 11:11 36.17495 117.30329 34227 ft 449 kts 331°
2026-04-29 11:11 36.23491 117.28109 34230 ft 450 kts 331°
2026-04-29 11:12 36.29492 117.25871 34228 ft 450 kts 331°
2026-04-29 11:12 36.35496 117.23643 34240 ft 451 kts 331°
2026-04-29 11:13 36.41504 117.21396 34232 ft 448 kts 328°
2026-04-29 11:13 36.47190 117.18514 34230 ft 441 kts 325°
2026-04-29 11:14 36.52848 117.15564 34222 ft 441 kts 325°
2026-04-29 11:14 36.58508 117.12613 34235 ft 441 kts 325°
2026-04-29 11:15 36.64175 117.09656 34222 ft 441 kts 325°
2026-04-29 11:15 36.69836 117.06698 34226 ft 442 kts 325°
2026-04-29 11:16 36.75504 117.03733 34221 ft 442 kts 325°
2026-04-29 11:16 36.81174 117.00765 34226 ft 442 kts 325°
2026-04-29 11:17 36.86839 116.97787 34225 ft 442 kts 325°
2026-04-29 11:17 36.92502 116.94821 34230 ft 441 kts 325°
2026-04-29 11:18 36.98161 116.91848 34214 ft 441 kts 325°
2026-04-29 11:18 37.03812 116.88864 34217 ft 440 kts 325°
2026-04-29 11:19 37.09456 116.85884 34216 ft 440 kts 325°
2026-04-29 11:19 37.15089 116.82905 34218 ft 439 kts 326°
2026-04-29 11:20 37.20718 116.79922 34214 ft 439 kts 326°
2026-04-29 11:20 37.26628 116.77526 34215 ft 448 kts 332°
2026-04-29 11:21 37.32606 116.75284 34215 ft 448 kts 332°
2026-04-29 11:21 37.38573 116.73041 34213 ft 448 kts 332°
2026-04-29 11:22 37.44537 116.70778 34206 ft 447 kts 332°
2026-04-29 11:22 37.50491 116.68513 34211 ft 447 kts 332°
2026-04-29 11:23 37.56436 116.66254 34206 ft 447 kts 332°
2026-04-29 11:23 37.62399 116.63985 34206 ft 447 kts 332°
2026-04-29 11:24 37.68354 116.61716 34203 ft 447 kts 332°
2026-04-29 11:24 37.74310 116.59447 34204 ft 447 kts 332°
2026-04-29 11:25 37.80288 116.57156 34267 ft 456 kts 338°
2026-04-29 11:25 37.86446 116.54787 34194 ft 466 kts 339°
2026-04-29 11:26 37.95747 116.51130 34187 ft 464 kts 334°
2026-04-29 11:26 38.01253 116.47083 34076 ft 454 kts 320°
2026-04-29 11:27 38.03812 116.44741 33308 ft 454 kts 320°
2026-04-29 11:27 38.06376 116.42392 32484 ft 455 kts 321°
2026-04-29 11:27 38.08942 116.40038 31684 ft 456 kts 322°
2026-04-29 11:27 38.11510 116.37681 30884 ft 456 kts 322°
2026-04-29 11:28 38.14082 116.35318 30051 ft 457 kts 323°
2026-04-29 11:28 38.16657 116.32949 29024 ft 457 kts 324°
2026-04-29 11:28 38.19236 116.30579 28143 ft 456 kts 326°
2026-04-29 11:28 38.21946 116.28543 27424 ft 449 kts 336°
2026-04-29 11:29 38.24848 116.27175 26721 ft 442 kts 347°
2026-04-29 11:29 38.27844 116.26489 26065 ft 434 kts 358°
2026-04-29 11:29 38.30831 116.26472 25437 ft 425 kts
2026-04-29 11:29 38.33714 116.27078 24836 ft 416 kts 17°
2026-04-29 11:30 38.36486 116.28030 24249 ft 410 kts 18°
2026-04-29 11:30 38.39225 116.28976 23681 ft 405 kts 18°
2026-04-29 11:30 38.41928 116.29907 22996 ft 400 kts 18°
2026-04-29 11:30 38.44635 116.30837 22288 ft 396 kts 18°
2026-04-29 11:31 38.47289 116.31750 21616 ft 393 kts 18°
2026-04-29 11:31 38.49918 116.32656 20979 ft 390 kts 18°
2026-04-29 11:31 38.52530 116.33557 20372 ft 388 kts 17°
2026-04-29 11:31 38.55126 116.34454 19803 ft 385 kts 17°
2026-04-29 11:32 38.57697 116.35362 19255 ft 382 kts 19°
2026-04-29 11:32 38.60126 116.36680 18729 ft 378 kts 30°
2026-04-29 11:32 38.62304 116.38524 18176 ft 375 kts 39°
2026-04-29 11:32 38.64170 116.40826 17586 ft 372 kts 49°
2026-04-29 11:33 38.65674 116.43501 16962 ft 370 kts 59°
2026-04-29 11:33 38.66784 116.46455 16359 ft 368 kts 69°
2026-04-29 11:33 38.67553 116.49572 15774 ft 366 kts 72°
2026-04-29 11:33 38.68279 116.52659 15421 ft 357 kts 72°
2026-04-29 11:34 38.68980 116.55632 15264 ft 342 kts 72°
2026-04-29 11:34 38.69660 116.58518 14897 ft 336 kts 72°
2026-04-29 11:34 38.70333 116.61368 14444 ft 333 kts 72°
2026-04-29 11:34 38.70999 116.64203 13975 ft 332 kts 72°
2026-04-29 11:35 38.71657 116.67027 13453 ft 330 kts 72°
2026-04-29 11:35 38.72308 116.69840 12939 ft 329 kts 72°
2026-04-29 11:35 38.72952 116.72641 12440 ft 327 kts 72°
2026-04-29 11:35 38.73593 116.75432 11961 ft 326 kts 72°
2026-04-29 11:36 38.74230 116.78211 11476 ft 324 kts 72°
2026-04-29 11:36 38.74864 116.80973 11006 ft 323 kts 72°
2026-04-29 11:36 38.75497 116.83730 10548 ft 322 kts 72°
2026-04-29 11:36 38.76118 116.86454 10298 ft 314 kts 72°
2026-04-29 11:37 38.76715 116.89088 10179 ft 302 kts 72°
2026-04-29 11:37 38.77291 116.91628 10046 ft 292 kts 72°
2026-04-29 11:37 38.77853 116.94102 9783 ft 287 kts 72°
2026-04-29 11:37 38.78406 116.96552 9437 ft 286 kts 74°
2026-04-29 11:38 38.78755 116.99052 9080 ft 285 kts 84°
2026-04-29 11:38 38.78776 117.01584 8733 ft 284 kts 94°
2026-04-29 11:38 38.78470 117.04081 8385 ft 284 kts 103°
2026-04-29 11:38 38.77838 117.06475 8040 ft 283 kts 112°
2026-04-29 11:39 38.77076 117.08803 7692 ft 283 kts 112°
2026-04-29 11:39 38.76322 117.11124 7360 ft 282 kts 112°
2026-04-29 11:39 38.75571 117.13437 7040 ft 280 kts 112°
2026-04-29 11:39 38.74826 117.15738 6723 ft 279 kts 112°
2026-04-29 11:40 38.74084 117.18029 6406 ft 278 kts 112°
2026-04-29 11:40 38.73431 117.20350 6060 ft 277 kts 104°
2026-04-29 11:40 38.73198 117.21952 5835 ft 276 kts 96°
2026-04-29 11:40 38.73241 117.25222 5394 ft 275 kts 83°
2026-04-29 11:41 38.73395 117.26831 5170 ft 274 kts 83°
2026-04-29 11:41 38.73613 117.29254 4838 ft 273 kts 83°
2026-04-29 11:41 38.73823 117.31671 4504 ft 273 kts 84°
2026-04-29 11:41 38.74029 117.34078 4175 ft 272 kts 84°
2026-04-29 11:42 38.74237 117.36481 3849 ft 271 kts 84°
2026-04-29 11:42 38.74446 117.38868 3527 ft 270 kts 84°
2026-04-29 11:42 38.74717 117.41239 3208 ft 269 kts 74°
2026-04-29 11:42 38.75543 117.43361 2888 ft 267 kts 51°
2026-04-29 11:43 38.76899 117.44905 2548 ft 264 kts 29°
2026-04-29 11:43 38.78605 117.45712 2213 ft 262 kts
2026-04-29 11:43 38.80404 117.45943 2058 ft 261 kts
2026-04-29 11:43 38.82186 117.46159 1990 ft 251 kts
2026-04-29 11:44 38.83873 117.46372 1977 ft 235 kts
2026-04-29 11:44 38.85448 117.46573 1975 ft 219 kts
2026-04-29 11:44 38.86910 117.46758 1979 ft 203 kts
2026-04-29 11:44 38.88283 117.46931 2015 ft 196 kts
2026-04-29 11:45 38.89623 117.47100 1983 ft 192 kts
2026-04-29 11:45 38.90949 117.47266 1975 ft 191 kts
2026-04-29 11:45 38.92269 117.47428 1973 ft 191 kts
2026-04-29 11:45 38.93594 117.47592 1976 ft 191 kts
2026-04-29 11:46 38.94922 117.47687 1976 ft 191 kts 353°
2026-04-29 11:46 38.96183 117.47238 1984 ft 188 kts 334°
2026-04-29 11:46 38.97366 117.46529 1978 ft 188 kts 333°
2026-04-29 11:46 38.98544 117.45808 1980 ft 188 kts 333°
2026-04-29 11:47 38.99723 117.45087 1978 ft 187 kts 332°
2026-04-29 11:47 39.00876 117.44384 1965 ft 176 kts 332°
2026-04-29 11:47 39.01956 117.43724 1979 ft 170 kts 332°
2026-04-29 11:47 39.02989 117.43094 1832 ft 155 kts 332°
2026-04-29 11:48 39.03930 117.42519 1657 ft 145 kts 332°
2026-04-29 11:48 39.04832 117.41967 1466 ft 142 kts 332°
2026-04-29 11:48 39.05721 117.41423 1290 ft 141 kts 332°
2026-04-29 11:48 39.06605 117.40882 1104 ft 140 kts 332°
2026-04-29 11:49 39.07484 117.40344 921 ft 140 kts 333°
2026-04-29 11:49 39.08362 117.39807 745 ft 139 kts 333°
2026-04-29 11:49 39.09232 117.39274 560 ft 138 kts 333°
2026-04-29 11:49 39.10103 117.38740 380 ft 138 kts 333°
2026-04-29 11:50 39.10970 117.38203 166 ft 138 kts 333°
2026-04-29 11:50 39.11835 117.37669 38 ft 137 kts 332°
2026-04-29 11:50 39.12600 117.37195 19 ft 99 kts 335°
2026-04-29 11:50 39.13069 117.36914 21 ft 50 kts 334°
2026-04-29 11:51 39.13198 117.36808 21 ft 16 kts 311°
2026-04-29 11:51 39.13248 117.36726 20 ft 11 kts 307°
2026-04-29 11:51 39.13297 117.36640 20 ft 10 kts 298°
2026-04-29 11:51 39.13258 117.36575 19 ft 12 kts 183°
2026-04-29 11:52 39.13173 117.36624 20 ft 15 kts 153°
2026-04-29 11:52 39.13068 117.36688 19 ft 18 kts 155°
2026-04-29 11:52 39.12944 117.36764 20 ft 15 kts 155°
2026-04-29 11:52 39.12870 117.36772 19 ft 12 kts 201°
2026-04-29 11:53 39.12819 117.36671 19 ft 15 kts 245°
2026-04-29 11:53 39.12768 117.36533 19 ft 19 kts 244°
2026-04-29 11:53 39.12722 117.36412 19 ft 12 kts 244°
2026-04-29 11:53 39.12682 117.36303 19 ft 14 kts 245°
2026-04-29 11:54 39.12695 117.36219 19 ft 11 kts 304°
2026-04-29 11:54 39.12742 117.36122 19 ft 14 kts 294°
2026-04-29 11:54 39.12726 117.36044 20 ft 11 kts 220°
2026-04-29 11:54 39.12673 117.35990 20 ft 0 kts 218°